Bellefonte, PA

9:33 PM EST on February 25, 2017 (GMT -0500)
University Park

Weather History for KUNV - October, 2013

Change the Weather History Date:

Friday, October 11, 2013

  Actual Average Record
Temperature  
Mean Temperature 53 °F -  
Max Temperature 57 °F 61 °F 85 °F (1949)
Min Temperature 49 °F 42 °F 27 °F (1964)
Degree Days  
Heating Degree Days 12    
Growing Degree Days 3 (Base 50)    
Moisture  
Dew Point 51 °F    
Average Humidity 96    
Maximum Humidity 100    
Minimum Humidity 88    
Precipitation  
Precipitation 0.00 in - - ()
Sea Level Pressure  
Sea Level Pressure 30.10 in    
Wind  
Wind Speed 6 mph (NNE)    
Max Wind Speed 14 mph    
Max Gust Speed 16 mph    
Visibility 7 miles    
Events Rain    
Averages and records for this station are not official NWS values.
T = Trace of Precipitation, MM = Missing Value Source: NWS Daily Summary

Daily Weather History Graph

Daily Weather History Graph

Search for Another Location

Airport or City:

Trip Planner

Search our weather history database for the weather conditions in past years. The results will help you decide how hot, cold, wet, or windy it might be!

Date:

Astronomy

Oct. 11, 2013 Rise Set
Actual Time 7:18 AM EDT 6:36 PM EDT
Civil Twilight 6:51 AM EDT 7:04 PM EDT
Nautical Twilight 6:19 AM EDT 7:36 PM EDT
Astronomical Twilight 5:47 AM EDT 8:07 PM EDT
Moon 2:00 PM EDT (10/11) No Moon Set
Length of Visible Light 12h 13m
Length of Day
11h 18m
Waxing Crescent, 47% of the Moon is Illuminated
Oct 11
Waxing Crescent
Oct 11
First Quarter
Oct 18
Full
Oct 26
Last Quarter
Nov 3
New

Hourly Weather History & Observations

Time (EDT) Temp. Dew Point Humidity Pressure Visibility Wind Dir Wind Speed Gust Speed Precip Events Conditions
12:15 AM 49.1 °F 47.8 °F 95% 30.11 in 5.0 mi NE 5.8 mph - N/A Rain Rain
12:35 AM 49.1 °F 48.2 °F 97% 30.11 in 10.0 mi NE 6.9 mph - N/A Rain Light Rain
12:55 AM 49.1 °F 47.7 °F 95% 30.11 in 10.0 mi NE 6.9 mph - N/A Rain Rain
1:15 AM 49.3 °F 48.2 °F 96% 30.11 in 10.0 mi NNE 8.1 mph - N/A Rain Light Rain
1:35 AM 49.3 °F 48.4 °F 97% 30.11 in 10.0 mi NE 5.8 mph - N/A Rain Light Rain
1:55 AM 49.5 °F 48.6 °F 97% 30.11 in 5.0 mi NNE 8.1 mph - N/A Rain Rain
2:15 AM 49.5 °F 48.7 °F 97% 30.10 in 5.0 mi NE 6.9 mph - N/A Rain Rain
2:55 AM 49.5 °F 49.1 °F 99% 30.09 in 4.0 mi NNE 8.1 mph - N/A Rain Rain
3:15 AM 49.6 °F 49.1 °F 98% 30.08 in 7.0 mi NNE 10.4 mph - N/A Rain Rain
3:35 AM 49.6 °F 49.1 °F 98% 30.08 in 5.0 mi NNE 9.2 mph - N/A Rain Rain
3:55 AM 49.6 °F 49.1 °F 98% 30.08 in 4.0 mi NNE 9.2 mph - N/A Rain Rain
4:15 AM 49.6 °F 49.1 °F 98% 30.08 in 3.0 mi NE 10.4 mph - N/A Rain Rain
4:35 AM 49.6 °F 49.1 °F 98% 30.08 in 4.0 mi NNE 11.5 mph 16.1 mph N/A Rain Rain
4:55 AM 49.8 °F 49.1 °F 97% 30.08 in 4.0 mi NNE 9.2 mph - N/A Rain Rain
5:15 AM 49.6 °F 49.1 °F 98% 30.08 in 2.5 mi NNE 9.2 mph 16.1 mph N/A Rain Rain
5:35 AM 49.6 °F 49.1 °F 98% 30.08 in 4.0 mi NNE 9.2 mph - N/A Rain Heavy Rain
5:53 AM 50.0 °F 48.2 °F 94% 30.08 in 5.0 mi NE 9.2 mph - N/A Rain Light Rain
6:53 AM 50.0 °F 48.2 °F 94% 30.11 in 5.0 mi NNE 9.2 mph - N/A Rain Rain
7:53 AM 50.0 °F 48.2 °F 94% 30.10 in 5.0 mi NE 13.8 mph - N/A Rain Rain
8:53 AM 50.0 °F 48.2 °F 94% 30.12 in 5.0 mi NNE 6.9 mph - N/A Rain Light Rain
9:53 AM 50.0 °F 50.0 °F 100% 30.12 in 5.0 mi NE 6.9 mph - N/A Rain Light Rain
10:53 AM 50.0 °F 50.0 °F 100% 30.13 in 3.0 mi Variable 5.8 mph - N/A Rain Light Rain
11:53 AM 51.8 °F 50.0 °F 94% 30.11 in 5.0 mi Variable 4.6 mph - N/A   Overcast
12:53 PM 51.8 °F 50.0 °F 94% 30.11 in 7.0 mi Variable 5.8 mph - N/A   Light Drizzle
1:53 PM 53.6 °F 51.8 °F 94% 30.09 in 7.0 mi Variable 4.6 mph - N/A   Overcast
2:53 PM 55.4 °F 53.6 °F 94% 30.07 in 10.0 mi Calm Calm - N/A   Overcast
3:53 PM 57.2 °F 53.6 °F 88% 30.08 in 10.0 mi Calm Calm - N/A   Overcast
4:53 PM 57.2 °F 53.6 °F 88% 30.08 in 10.0 mi Calm Calm - N/A   Mostly Cloudy
5:53 PM 57.2 °F 55.4 °F 94% 30.08 in 8.0 mi Calm Calm - N/A Rain Light Rain
6:53 PM 57.2 °F 55.4 °F 94% 30.10 in 8.0 mi Calm Calm - N/A Rain Light Rain
7:29 PM 57.2 °F 55.4 °F 94% 30.10 in 10.0 mi Calm Calm - N/A   Overcast
7:53 PM 57.2 °F 55.4 °F 94% 30.10 in 10.0 mi Calm Calm - N/A   Overcast
8:53 PM 57.2 °F 55.4 °F 94% 30.11 in 10.0 mi Calm Calm - N/A   Overcast
9:35 PM 56.1 °F 55.2 °F 97% 30.12 in 10.0 mi Calm Calm - N/A   Overcast
9:55 PM 56.3 °F 55.0 °F 96% 30.11 in 10.0 mi Calm Calm - N/A   Light Drizzle
10:15 PM 56.1 °F 55.4 °F 97% 30.11 in 10.0 mi WNW 3.5 mph - N/A   Overcast
10:35 PM 55.6 °F 54.9 °F 97% 30.11 in 10.0 mi Calm Calm - N/A   Overcast
10:55 PM 55.8 °F 54.5 °F 96% 30.12 in 10.0 mi Calm Calm - N/A   Overcast
11:15 PM 55.2 °F 54.5 °F 97% 30.11 in 10.0 mi Calm Calm - N/A   Overcast
11:35 PM 55.4 °F 54.9 °F 98% 30.12 in 10.0 mi Calm Calm - N/A   Overcast
11:55 PM 56.3 °F 54.9 °F 95% 30.11 in 10.0 mi Calm Calm - N/A   Overcast